Regional Weather Roundup
Issued by NWS

Home | Current Version | Previous Version | Text Only | Print | Product List | Glossary Off
Versions: 1 2 3 4 5 6 7 8 9 10 11 12 13 14 15 16 17 18 19 20 21 22 23 24 25 26 27 28 29 30 31 32 33 34 35 36 37 38 39 40 41 42 43 44 45 46 47 48 49 50

000
ASUS43 KMPX 300110
RWRMN
WEATHER ROUNDUP FOR MINNESOTA
NATIONAL WEATHER SERVICE TWIN CITIES/CHANHASSEN MN
800 PM CDT WED JUL 29 2015


NOTE: "FAIR" INDICATES FEW OR NO CLOUDS BELOW 12,000 FEET WITH NO
SIGNIFICANT WEATHER AND/OR OBSTRUCTIONS TO VISIBILITY. N/A MEANS
CURRENT SKY AND/OR WEATHER CONDITIONS ARE NOT AVAILABLE.

MNZ060>063-068>070-300200-
   Twin Cities Metro

CITY           SKY/WX    TMP DP  RH WIND       PRES   REMARKS
TWIN CITIES    CLEAR     80  54  40 W14       29.94S
ST PAUL        CLEAR     79  54  41 W17       29.93S
CRYSTAL        CLEAR     80  55  42 W14G22    29.93R
BLAINE         PTCLDY    79  55  44 W14G20    29.93S
LAKEVILLE      CLEAR     75  55  50 W7        29.97R
EDEN PRAIRIE   CLEAR     78  54  43 W9        29.95R
SOUTH ST PAUL  CLEAR     79  51  37 W13G21    29.94S
LAKE ELMO      FAIR      77  55  47 W10G24    29.94S
$$
MNZ001>005-007-008-013>017-022>024-027-028-300200-
   Northwest Minnesota

CITY           SKY/WX    TMP DP  RH WIND       PRES   REMARKS
BEMIDJI        CLEAR     74  51  43 W20G28    29.86S
HALLOCK        PTCLDY    75  55  50 NW12      29.83R
ROSEAU         PTCLDY    72  57  60 W10       29.81R
WARROAD        MOCLDY    72  59  64 W9        29.80S
THIEF RVR FALL PTCLDY    75  54  46 NW12G21   29.86R
CROOKSTON      PTCLDY    75  57  53 NW13      29.88R
FOSSTON        PTCLDY    72  54  53 W14       29.89R
DETROIT LAKES  PTCLDY    73  55  53 W10       29.94S
MOORHEAD       PTCLDY    75  55  50 W12G20    29.93S
PARK RAPIDS    PTCLDY    74  52  46 W14G25    29.90R
MAHNOMEN       FAIR      72  56  57 W10       29.90S
$$
MNZ006-009>011-018-025>026-300200-
   North Central Minnesota

CITY           SKY/WX    TMP DP  RH WIND       PRES   REMARKS
BAUDETTE       CLOUDY    69  56  62 NW10      29.79R
FLAG ISLAND    PTCLDY    70  55  60 W16G22    29.74S
INTL FALLS     CLOUDY    63  59  87 W14       29.78R
WASKISH        PTCLDY    73  57  56 W15G23    29.82R
BIG FORK       CLEAR     73  52  46 W6        29.82R
LONGVILLE      PTCLDY    73  52  46 W9G20     29.87R
GRAND RAPIDS   PTCLDY    73  52  46 W7        29.84S
CRANE LAKE     CLOUDY    70  55  60 W3        29.75R
ORR            MOCLDY    72  48  43 W10       29.75R
COOK           PTCLDY    72  52  49 W16G25    29.78R
WALKER         FAIR      73  53  49 W12G20    29.87R
$$
MNZ012-019>021-037-300200-
   Northeast Minnesota

CITY           SKY/WX    TMP DP  RH WIND       PRES   REMARKS
DULUTH         PTCLDY    73  53  49 W15       29.83R
ELY            CLEAR     72  52  49 W18G24    29.75S
HIBBING        CLEAR     73  50  44 W10G24    29.81R
EVELETH        CLEAR     72  50  46 W14G23    29.81S
DULUTH HARBOR  PTCLDY    79  55  44 W17       29.81R
TWO HARBORS    PTCLDY    75  57  53 W14G29    29.77S
SILVER BAY     CLEAR     73  54  49 W7        29.75R
GRAND MARAIS     N/A     50  46  86 W8        29.71R
G MARAIS ARPRT   N/A     64  54  68 SW3       29.75S
$$
MNZ029>031-032-039>041-046>048-054>057-064-300200-
   West Central Minnesota

CITY           SKY/WX    TMP DP  RH WIND       PRES   REMARKS
FERGUS FALLS   PTCLDY    75  55  50 W13       29.94S
WHEATON        PTCLDY    73  55  53 W8        29.99S
MORRIS         CLEAR     75  57  53 W8        29.98S
ALEXANDRIA     PTCLDY    75  55  49 W14       29.98R
ELBOW LAKE     FAIR      74  58  55 W10G17    29.97R
WADENA         PTCLDY    73  55  53 W7        29.92S
GLENWOOD       CLEAR     75  54  46 W14       29.99R
APPLETON       CLEAR     77  54  44 W7        29.99S
BENSON         CLEAR     75  57  53 NW5       29.99R
ORTONVILLE     CLEAR     79  50  36 W9        30.00R
MADISON        CLEAR     75  52  43 W8        30.02R
WILLMAR        FAIR      75  57  53 W9        30.00S
$$
MNZ033>034-036-042>043-049>051-058-059-300200-
   Central Minnesota

CITY           SKY/WX    TMP DP  RH WIND       PRES   REMARKS
ST CLOUD       CLEAR     77  52  41 W14       29.93R
SAUK CENTRE    FAIR      74  55  51 W9        29.97R
PAYNESVILLE    CLEAR     73  53  48 SW12G17   29.97S
AITKIN         PTCLDY    73  54  49 W7        29.87S
PINE RIVER     MOCLDY    75  55  50 W12G21    29.92S
BRAINERD       PTCLDY    75  52  44 W13G23    29.90S
STAPLES        PTCLDY    72  52  49 W10       29.92S
LONG PRAIRIE   FAIR      73  54  49 W10       29.96R
LITTLE FALLS   CLEAR     75  48  38 W9        29.93S
LITCHFIELD     CLEAR     79  57  47 W10       29.98S
BUFFALO        CLEAR     77  54  45 W8        29.96S
MAPLE LAKE     CLEAR     77  57  50 W9        29.96R
$$
MNZ037-044-045-052-053-300200-
   East Central Minnesota

CITY           SKY/WX    TMP DP  RH WIND       PRES   REMARKS
PRINCETON      CLEAR     77  55  47 W10G17    29.92S
MORA           CLEAR     73  52  46 W10G20    29.91S
CAMBRIDGE      CLEAR     79  59  50 W8        29.90S
RUSH CITY      CLEAR     75  55  50 W8        29.90S
MOOSE LAKE     CLEAR     73  50  43 W10G17    29.85S
HINCKLEY       FAIR      75  55  50 W6        29.89R
CLOQUET        PTCLDY    73  48  40 W15G21    29.84S
MCGREGOR       PTCLDY    73  52  46 W8        29.87S
$$
MNZ071>073-080-081-089-090-097-098-300200-
   Southwest Minnesota

CITY           SKY/WX    TMP DP  RH WIND       PRES   REMARKS
MONTEVIDEO     CLEAR     75  54  46 NW7       30.02S
GRANITE FALLS  CLEAR     74  59  58 W6        30.03R
CANBY          CLEAR     77  54  44 NW7       30.04S
MARSHALL       CLEAR     75  55  50 W8        30.05S
REDWOOD FALLS  CLEAR     78  58  49 W9        30.01R
OLIVIA         CLEAR     72  52  49 W8        30.00S
PIPESTONE      CLEAR     75  57  53 CALM      30.08S
WINDOM         CLEAR     75  59  57 W6        30.05S
WORTHINGTON    CLEAR     73  57  56 W7        30.08S
JACKSON        CLEAR     75  59  57 W6        30.07S
TRACY          CLEAR     77  55  47 W3        30.05S
SLAYTON        CLEAR     75  58  53 CALM      30.08S
$$
MNZ065>067-074>077-082>085-091>093-300200-
   South Central Minnesota

CITY           SKY/WX    TMP DP  RH WIND       PRES   REMARKS
MANKATO        CLEAR     77  55  47 W7        30.01R
NEW ULM        CLEAR     75  57  53 W6        30.01S
ST JAMES       CLEAR     79  57  47 W10       30.04R
FAIRMONT       CLEAR     79  52  38 W7        30.05R
GLENCOE        CLEAR     77  57  50 W7        29.97S
FARIBAULT      CLEAR     75  55  50 W9        30.00R
OWATONNA       CLEAR     73  57  56 W8        30.01S
WASECA         CLEAR     72  55  56 W7        30.03S
ALBERT LEA     CLEAR     75  57  53 W6        30.03S
$$
MNZ078>079-086>088-094>096-300200-
   Southeast Minnesota

CITY           SKY/WX    TMP DP  RH WIND       PRES   REMARKS
ROCHESTER      CLEAR     72  59  63 W9        30.01S
RED WING       CLEAR     79  52  38 W10       29.93S
STANTON        CLEAR     76  54  45 W6        29.96S
DODGE CENTER   CLEAR     73  54  49 W9        30.01S
WINONA         CLEAR     79  54  41 W10G17    29.96S
AUSTIN         CLEAR     77  55  47 W9        30.02S
PRESTON        CLEAR     73  56  56 W9        30.02S
$$
ABBREVIATIONS USED IN REMARKS
   TC - TEMPERATURES IN CELSIUS
  WCI - WIND CHILL INDEX
   HX - HEAT INDEX
  VSB - VISIBILITY
$$



USA.gov is the U.S. government's official web portal to all federal, state and local government web resources and services.